NKS515 KLGA-KSAV

Flight info

Callsign NKS515
Flight time 1h 43m
Altitude 34000
Route WHITE Q409 SESUE SOOOP
Aircraft A321/M-SDE3FGHIRWY/LB1

Departure

Time 2026-05-06 16:14
Airport LaGuardia Airport (KLGA)

Arrival

Time 2026-05-06 17:57
Airport Savannah Hilton Head International Airport (KSAV)
Time Latitude Longitude Altitude Speed Heading
2026-05-06 15:42 40.77405 -73.88346 20 ft 0 kts 248°
2026-05-06 16:07 40.77408 -73.88334 19 ft 4 kts 248°
2026-05-06 16:07 40.77417 -73.88305 23 ft 4 kts 250°
2026-05-06 16:07 40.77424 -73.88271 21 ft 4 kts 270°
2026-05-06 16:07 40.77422 -73.88249 21 ft 4 kts 355°
2026-05-06 16:08 40.77420 -73.88248 21 ft 0 kts 32°
2026-05-06 16:10 40.77423 -73.88246 20 ft 2 kts 32°
2026-05-06 16:10 40.77469 -73.88207 19 ft 13 kts 32°
2026-05-06 16:10 40.77569 -73.88124 20 ft 18 kts 32°
2026-05-06 16:10 40.77678 -73.88034 20 ft 19 kts 32°
2026-05-06 16:11 40.77791 -73.87940 21 ft 20 kts 32°
2026-05-06 16:11 40.77912 -73.87840 19 ft 21 kts 32°
2026-05-06 16:11 40.78000 -73.87768 18 ft 13 kts 32°
2026-05-06 16:11 40.78062 -73.87743 17 ft 8 kts 326°
2026-05-06 16:12 40.78089 -73.87795 18 ft 5 kts 303°
2026-05-06 16:12 40.78097 -73.87812 19 ft 3 kts 304°
2026-05-06 16:12 40.78112 -73.87836 18 ft 3 kts 313°
2026-05-06 16:12 40.78134 -73.87854 18 ft 4 kts 337°
2026-05-06 16:13 40.78173 -73.87863 19 ft 7 kts 360°
2026-05-06 16:13 40.78208 -73.87829 19 ft 7 kts 71°
2026-05-06 16:13 40.78180 -73.87750 20 ft 18 kts 122°
2026-05-06 16:13 40.77972 -73.87314 15 ft 99 kts 121°
2026-05-06 16:14 40.77481 -73.86274 47 ft 163 kts 123°
2026-05-06 16:14 40.76863 -73.85001 880 ft 165 kts 130°
2026-05-06 16:14 40.75987 -73.84073 1590 ft 158 kts 164°
2026-05-06 16:14 40.74916 -73.83702 2001 ft 164 kts 175°
2026-05-06 16:15 40.73784 -73.83367 2532 ft 170 kts 174°
2026-05-06 16:15 40.72593 -73.82995 2890 ft 185 kts 175°
2026-05-06 16:15 40.71274 -73.82682 3086 ft 200 kts 186°
2026-05-06 16:15 40.69897 -73.82970 3626 ft 202 kts 197°
2026-05-06 16:16 40.68551 -73.83336 4432 ft 200 kts 198°
2026-05-06 16:16 40.67220 -73.83787 5220 ft 195 kts 209°
2026-05-06 16:16 40.66047 -73.84766 5648 ft 210 kts 215°
2026-05-06 16:16 40.64708 -73.85730 6067 ft 226 kts 208°
2026-05-06 16:17 40.63265 -73.86596 6706 ft 231 kts 206°
2026-05-06 16:17 40.61783 -73.87454 7429 ft 235 kts 206°
2026-05-06 16:17 40.60274 -73.88337 8240 ft 239 kts 206°
2026-05-06 16:17 40.58742 -73.89249 9095 ft 243 kts 206°
2026-05-06 16:18 40.57197 -73.90183 9900 ft 246 kts 206°
2026-05-06 16:18 40.55619 -73.91153 10399 ft 259 kts 207°
2026-05-06 16:18 40.53920 -73.92210 10601 ft 282 kts 207°
2026-05-06 16:18 40.52085 -73.93355 10829 ft 300 kts 207°
2026-05-06 16:19 40.50180 -73.94541 11339 ft 305 kts 207°
2026-05-06 16:19 40.48274 -73.95724 11932 ft 308 kts 207°
2026-05-06 16:19 40.46329 -73.96928 12566 ft 310 kts 208°
2026-05-06 16:19 40.44369 -73.98142 13206 ft 313 kts 208°
2026-05-06 16:20 40.42394 -73.99368 13754 ft 317 kts 208°
2026-05-06 16:20 40.40386 -74.00613 14263 ft 321 kts 209°
2026-05-06 16:20 40.38362 -74.01870 14826 ft 323 kts 210°
2026-05-06 16:20 40.36318 -74.03141 15348 ft 327 kts 210°
2026-05-06 16:21 40.34252 -74.04427 15866 ft 331 kts 210°
2026-05-06 16:21 40.32158 -74.05728 16361 ft 335 kts 211°
2026-05-06 16:21 40.30039 -74.07043 16877 ft 339 kts 211°
2026-05-06 16:21 40.27893 -74.08372 17365 ft 344 kts 211°
2026-05-06 16:22 40.25718 -74.09717 17858 ft 348 kts 211°
2026-05-06 16:22 40.23516 -74.11079 18293 ft 352 kts 211°
2026-05-06 16:22 40.21278 -74.12460 18641 ft 358 kts 211°
2026-05-06 16:22 40.19015 -74.13853 19069 ft 362 kts 211°
2026-05-06 16:23 40.16725 -74.15263 19515 ft 365 kts 212°
2026-05-06 16:23 40.14423 -74.16681 19983 ft 367 kts 212°
2026-05-06 16:23 40.12102 -74.18111 20441 ft 370 kts 212°
2026-05-06 16:23 40.09769 -74.19547 20894 ft 373 kts 212°
2026-05-06 16:24 40.07415 -74.20993 21320 ft 375 kts 212°
2026-05-06 16:24 40.05047 -74.22444 21750 ft 378 kts 212°
2026-05-06 16:24 40.02653 -74.23911 22150 ft 381 kts 212°
2026-05-06 16:24 40.00317 -74.25514 22572 ft 378 kts 219°
2026-05-06 16:25 39.98185 -74.27499 23002 ft 377 kts 222°
2026-05-06 16:25 39.96064 -74.29531 23408 ft 380 kts 222°
2026-05-06 16:25 39.93926 -74.31574 23757 ft 382 kts 222°
2026-05-06 16:25 39.91778 -74.33622 24095 ft 384 kts 222°
2026-05-06 16:26 39.89616 -74.35679 24435 ft 386 kts 222°
2026-05-06 16:26 39.87446 -74.37740 24833 ft 386 kts 222°
2026-05-06 16:26 39.85276 -74.39800 25215 ft 386 kts 222°
2026-05-06 16:26 39.83098 -74.41871 25476 ft 389 kts 223°
2026-05-06 16:27 39.81024 -74.44112 25750 ft 386 kts 230°
2026-05-06 16:27 39.79149 -74.46613 26047 ft 387 kts 231°
2026-05-06 16:27 39.77263 -74.49124 26361 ft 389 kts 231°
2026-05-06 16:27 39.75366 -74.51643 26670 ft 391 kts 231°
2026-05-06 16:28 39.73456 -74.54174 26977 ft 393 kts 231°
2026-05-06 16:28 39.71537 -74.56707 27298 ft 395 kts 231°
2026-05-06 16:28 39.69605 -74.59253 27606 ft 396 kts 231°
2026-05-06 16:28 39.67666 -74.61808 27920 ft 398 kts 231°
2026-05-06 16:29 39.65718 -74.64376 28227 ft 400 kts 231°
2026-05-06 16:29 39.63763 -74.66955 28530 ft 402 kts 231°
2026-05-06 16:29 39.61797 -74.69547 28833 ft 404 kts 231°
2026-05-06 16:29 39.59822 -74.72148 29149 ft 406 kts 232°
2026-05-06 16:30 39.57840 -74.74761 29449 ft 407 kts 232°
2026-05-06 16:30 39.56524 -74.76497 29641 ft 408 kts 232°
2026-05-06 16:30 39.53852 -74.80017 30018 ft 411 kts 232°
2026-05-06 16:30 39.51846 -74.82653 30311 ft 410 kts 232°
2026-05-06 16:31 39.49846 -74.85277 30681 ft 408 kts 232°
2026-05-06 16:31 39.47855 -74.87887 31025 ft 407 kts 232°
2026-05-06 16:31 39.45868 -74.90488 31382 ft 405 kts 233°
2026-05-06 16:31 39.43893 -74.93070 31727 ft 403 kts 233°
2026-05-06 16:32 39.41948 -74.95612 32072 ft 402 kts 233°
2026-05-06 16:32 39.39984 -74.98178 32457 ft 401 kts 233°
2026-05-06 16:32 39.38024 -75.00730 32839 ft 399 kts 234°
2026-05-06 16:32 39.36069 -75.03275 33189 ft 398 kts 234°
2026-05-06 16:33 39.34123 -75.05807 33509 ft 397 kts 234°
2026-05-06 16:33 39.32179 -75.08336 33817 ft 396 kts 234°
2026-05-06 16:33 39.30242 -75.10858 33935 ft 394 kts 234°
2026-05-06 16:34 39.26249 -75.15730 33949 ft 397 kts 232°
2026-05-06 16:34 39.22116 -75.20478 33954 ft 398 kts 231°
2026-05-06 16:35 39.17981 -75.25228 33923 ft 398 kts 232°
2026-05-06 16:35 39.13877 -75.30000 33921 ft 397 kts 232°
2026-05-06 16:36 39.09780 -75.34787 33915 ft 398 kts 232°
2026-05-06 16:36 39.05676 -75.39568 33914 ft 399 kts 232°
2026-05-06 16:36 39.03450 -75.41776 33890 ft 411 kts 223°
2026-05-06 16:37 39.00862 -75.43491 33902 ft 426 kts 212°
2026-05-06 16:37 38.97967 -75.44585 33915 ft 443 kts 201°
2026-05-06 16:37 38.94872 -75.45083 33923 ft 450 kts 198°
2026-05-06 16:38 38.88648 -75.45919 33937 ft 449 kts 198°
2026-05-06 16:38 38.82427 -75.46779 33943 ft 450 kts 198°
2026-05-06 16:39 38.76187 -75.47652 33951 ft 452 kts 198°
2026-05-06 16:39 38.69931 -75.48515 33959 ft 453 kts 198°
2026-05-06 16:40 38.63664 -75.49359 33935 ft 453 kts 198°
2026-05-06 16:40 38.57384 -75.50210 33958 ft 454 kts 198°
2026-05-06 16:41 38.51095 -75.51059 33973 ft 455 kts 198°
2026-05-06 16:41 38.44799 -75.51905 33985 ft 455 kts 198°
2026-05-06 16:42 38.38510 -75.52779 33972 ft 451 kts 201°
2026-05-06 16:42 38.35493 -75.53606 33982 ft 437 kts 209°
2026-05-06 16:42 38.32689 -75.54921 33987 ft 423 kts 217°
2026-05-06 16:42 38.30134 -75.56663 33992 ft 411 kts 224°
2026-05-06 16:43 38.27825 -75.58670 33994 ft 407 kts 226°
2026-05-06 16:43 38.23160 -75.62764 33969 ft 408 kts 226°
2026-05-06 16:44 38.18478 -75.66835 33977 ft 408 kts 226°
2026-05-06 16:44 38.13786 -75.70903 33985 ft 408 kts 226°
2026-05-06 16:45 38.09085 -75.74979 33988 ft 408 kts 226°
2026-05-06 16:45 38.04394 -75.79042 33999 ft 408 kts 226°
2026-05-06 16:46 37.99701 -75.83096 33974 ft 408 kts 226°
2026-05-06 16:46 37.95013 -75.87132 33989 ft 407 kts 226°
2026-05-06 16:47 37.90329 -75.91173 33996 ft 407 kts 226°
2026-05-06 16:47 37.85676 -75.95185 34002 ft 407 kts 226°
2026-05-06 16:48 37.80989 -75.99209 33970 ft 407 kts 225°
2026-05-06 16:48 37.76304 -76.03226 33988 ft 406 kts 224°
2026-05-06 16:49 37.71631 -76.07229 33999 ft 405 kts 224°
2026-05-06 16:49 37.66966 -76.11216 34001 ft 405 kts 224°
2026-05-06 16:50 37.62298 -76.15194 34016 ft 405 kts 224°
2026-05-06 16:50 37.57634 -76.19172 34005 ft 404 kts 224°
2026-05-06 16:51 37.52983 -76.23157 34006 ft 404 kts 224°
2026-05-06 16:51 37.48325 -76.27135 34001 ft 405 kts 224°
2026-05-06 16:52 37.43663 -76.31105 34005 ft 405 kts 224°
2026-05-06 16:52 37.39000 -76.35075 33981 ft 405 kts 224°
2026-05-06 16:53 37.34312 -76.39059 33966 ft 406 kts 223°
2026-05-06 16:53 37.29618 -76.43045 33976 ft 408 kts 223°
2026-05-06 16:54 37.24906 -76.47039 34003 ft 409 kts 223°
2026-05-06 16:54 37.20984 -76.50357 34011 ft 410 kts 223°
2026-05-06 16:55 37.16255 -76.54349 34011 ft 409 kts 223°
2026-05-06 16:55 37.10762 -76.58979 34003 ft 409 kts 223°
2026-05-06 16:56 37.06797 -76.62313 34006 ft 410 kts 222°
2026-05-06 16:56 37.02062 -76.66293 34009 ft 410 kts 222°
2026-05-06 16:57 36.97328 -76.70266 34011 ft 410 kts 222°
2026-05-06 16:57 36.92583 -76.74233 33976 ft 411 kts 222°
2026-05-06 16:58 36.87817 -76.78228 33997 ft 413 kts 222°
2026-05-06 16:58 36.83032 -76.82231 33999 ft 415 kts 222°
2026-05-06 16:59 36.78231 -76.86234 34010 ft 416 kts 222°
2026-05-06 16:59 36.73418 -76.90235 34023 ft 416 kts 221°
2026-05-06 17:00 36.68607 -76.94235 34023 ft 416 kts 221°
2026-05-06 17:00 36.63799 -76.98229 34019 ft 415 kts 221°
2026-05-06 17:01 36.59022 -77.02186 34023 ft 416 kts 221°
2026-05-06 17:01 36.54200 -77.06171 34023 ft 416 kts 221°
2026-05-06 17:02 36.49380 -77.10159 33997 ft 417 kts 221°
2026-05-06 17:02 36.44547 -77.14154 34005 ft 418 kts 221°
2026-05-06 17:03 36.39701 -77.18148 34015 ft 418 kts 221°
2026-05-06 17:03 36.34846 -77.22143 34022 ft 419 kts 221°
2026-05-06 17:04 36.30004 -77.26143 34027 ft 417 kts 223°
2026-05-06 17:04 36.25496 -77.30563 34030 ft 412 kts 227°
2026-05-06 17:05 36.20694 -77.34586 34025 ft 417 kts 224°
2026-05-06 17:05 36.16189 -77.38965 34048 ft 411 kts 226°
2026-05-06 17:06 36.11703 -77.43328 34064 ft 409 kts 226°
2026-05-06 17:06 36.07240 -77.47684 34035 ft 408 kts 225°
2026-05-06 17:07 36.02785 -77.52052 34029 ft 409 kts 225°
2026-05-06 17:07 35.98315 -77.56422 34032 ft 410 kts 225°
2026-05-06 17:08 35.93834 -77.60787 34060 ft 411 kts 225°
2026-05-06 17:08 35.89348 -77.65152 34062 ft 410 kts 225°
2026-05-06 17:09 35.84867 -77.69508 34014 ft 410 kts 225°
2026-05-06 17:09 35.80378 -77.73864 34025 ft 411 kts 225°
2026-05-06 17:10 35.75870 -77.78224 34029 ft 412 kts 225°
2026-05-06 17:10 35.71357 -77.82589 34043 ft 413 kts 225°
2026-05-06 17:11 35.66870 -77.86927 34044 ft 413 kts 225°
2026-05-06 17:11 35.62346 -77.91296 34019 ft 414 kts 225°
2026-05-06 17:12 35.57807 -77.95665 34021 ft 415 kts 225°
2026-05-06 17:12 35.53249 -78.00048 34037 ft 417 kts 226°
2026-05-06 17:13 35.48679 -78.04438 34040 ft 418 kts 226°
2026-05-06 17:13 35.44098 -78.08825 34044 ft 418 kts 226°
2026-05-06 17:14 35.39510 -78.13217 34047 ft 418 kts 226°
2026-05-06 17:14 35.34927 -78.17603 34054 ft 418 kts 226°
2026-05-06 17:15 35.30337 -78.21979 34052 ft 418 kts 226°
2026-05-06 17:15 35.25743 -78.26347 34049 ft 418 kts 226°
2026-05-06 17:16 35.21135 -78.30696 34043 ft 418 kts 226°
2026-05-06 17:16 35.16515 -78.35031 34023 ft 418 kts 226°
2026-05-06 17:17 35.11905 -78.39360 34058 ft 418 kts 226°
2026-05-06 17:17 35.07296 -78.43689 34066 ft 418 kts 226°
2026-05-06 17:18 35.02678 -78.48007 34070 ft 418 kts 226°
2026-05-06 17:18 34.98065 -78.52319 34069 ft 418 kts 226°
2026-05-06 17:19 34.93453 -78.56638 34029 ft 418 kts 226°
2026-05-06 17:19 34.88823 -78.60963 34024 ft 420 kts 225°
2026-05-06 17:20 34.84171 -78.65286 34029 ft 421 kts 225°
2026-05-06 17:20 34.79509 -78.69619 34056 ft 422 kts 226°
2026-05-06 17:21 34.74854 -78.73946 34077 ft 420 kts 226°
2026-05-06 17:21 34.70210 -78.78256 34035 ft 420 kts 225°
2026-05-06 17:22 34.65556 -78.82563 34033 ft 421 kts 225°
2026-05-06 17:22 34.60889 -78.86875 34044 ft 422 kts 225°
2026-05-06 17:23 34.56216 -78.91191 34055 ft 422 kts 225°
2026-05-06 17:23 34.51539 -78.95512 34062 ft 423 kts 225°
2026-05-06 17:24 34.46864 -78.99812 34041 ft 423 kts 225°
2026-05-06 17:24 34.42157 -79.04103 34044 ft 424 kts 224°
2026-05-06 17:25 34.37338 -79.08272 34063 ft 426 kts 223°
2026-05-06 17:25 34.32508 -79.12337 34081 ft 426 kts 223°
2026-05-06 17:26 34.27661 -79.16439 34090 ft 425 kts 223°
2026-05-06 17:26 34.22941 -79.20681 34064 ft 421 kts 227°
2026-05-06 17:27 34.18447 -79.25197 34073 ft 420 kts 228°
2026-05-06 17:27 34.13979 -79.29742 34074 ft 421 kts 228°
2026-05-06 17:28 34.09451 -79.34233 34082 ft 422 kts 227°
2026-05-06 17:28 34.04892 -79.38688 34079 ft 422 kts 227°
2026-05-06 17:29 34.00328 -79.43143 34065 ft 422 kts 227°
2026-05-06 17:29 33.95773 -79.47605 34064 ft 422 kts 228°
2026-05-06 17:30 33.91206 -79.52074 34068 ft 423 kts 227°
2026-05-06 17:30 33.86578 -79.56474 34066 ft 429 kts 222°
2026-05-06 17:31 33.81357 -79.60104 34065 ft 435 kts 218°
2026-05-06 17:31 33.76089 -79.63678 34049 ft 435 kts 219°
2026-05-06 17:32 33.70820 -79.67266 34050 ft 436 kts 219°
2026-05-06 17:32 33.65539 -79.70864 34072 ft 437 kts 219°
2026-05-06 17:33 33.60239 -79.74459 33809 ft 438 kts 218°
2026-05-06 17:33 33.57583 -79.76256 33545 ft 438 kts 218°
2026-05-06 17:33 33.54933 -79.78049 33285 ft 437 kts 218°
2026-05-06 17:33 33.52289 -79.79832 32992 ft 436 kts 218°
2026-05-06 17:34 33.49651 -79.81608 32746 ft 435 kts 218°
2026-05-06 17:34 33.47025 -79.83376 32415 ft 430 kts 218°
2026-05-06 17:34 33.44424 -79.85130 31911 ft 428 kts 217°
2026-05-06 17:34 33.41842 -79.86872 31393 ft 426 kts 217°
2026-05-06 17:35 33.39264 -79.88616 30839 ft 425 kts 216°
2026-05-06 17:35 33.36700 -79.90348 30360 ft 422 kts 216°
2026-05-06 17:35 33.34152 -79.92065 29831 ft 419 kts 215°
2026-05-06 17:36 33.29120 -79.95444 28879 ft 410 kts 215°
2026-05-06 17:36 33.26640 -79.97107 28395 ft 406 kts 215°
2026-05-06 17:36 33.24189 -79.98748 27956 ft 402 kts 215°
2026-05-06 17:36 33.21757 -80.00376 27503 ft 399 kts 215°
2026-05-06 17:37 33.19344 -80.01993 27061 ft 396 kts 215°
2026-05-06 17:37 33.16953 -80.03594 26629 ft 393 kts 215°
2026-05-06 17:37 33.14571 -80.05188 26193 ft 391 kts 214°
2026-05-06 17:37 33.12207 -80.06772 25789 ft 389 kts 214°
2026-05-06 17:38 33.09857 -80.08348 25379 ft 387 kts 214°
2026-05-06 17:38 33.07513 -80.09917 24964 ft 386 kts 214°
2026-05-06 17:38 33.05176 -80.11478 24554 ft 384 kts 214°
2026-05-06 17:38 33.02856 -80.13029 24167 ft 382 kts 214°
2026-05-06 17:39 33.00539 -80.14576 23758 ft 380 kts 214°
2026-05-06 17:39 32.99015 -80.15593 23454 ft 379 kts 214°
2026-05-06 17:39 32.96724 -80.17121 23023 ft 376 kts 214°
2026-05-06 17:39 32.94451 -80.18635 22601 ft 372 kts 214°
2026-05-06 17:40 32.92202 -80.20132 22191 ft 369 kts 215°
2026-05-06 17:40 32.89970 -80.21614 21762 ft 365 kts 215°
2026-05-06 17:40 32.87763 -80.23079 21341 ft 362 kts 216°
2026-05-06 17:40 32.85572 -80.24532 20907 ft 359 kts 216°
2026-05-06 17:41 32.83401 -80.25973 20480 ft 356 kts 216°
2026-05-06 17:41 32.81245 -80.27404 20051 ft 353 kts 217°
2026-05-06 17:41 32.79106 -80.28823 19623 ft 351 kts 217°
2026-05-06 17:41 32.76984 -80.30232 19184 ft 348 kts 217°
2026-05-06 17:42 32.74876 -80.31631 18778 ft 346 kts 217°
2026-05-06 17:42 32.72779 -80.33021 18351 ft 344 kts 217°
2026-05-06 17:42 32.70695 -80.34402 17884 ft 342 kts 217°
2026-05-06 17:42 32.68629 -80.35765 17467 ft 338 kts 217°
2026-05-06 17:43 32.66588 -80.37114 17058 ft 334 kts 217°
2026-05-06 17:43 32.64569 -80.38446 16643 ft 330 kts 217°
2026-05-06 17:43 32.62570 -80.39765 16236 ft 327 kts 216°
2026-05-06 17:43 32.60589 -80.41074 15831 ft 325 kts 216°
2026-05-06 17:44 32.58622 -80.42371 15427 ft 322 kts 216°
2026-05-06 17:44 32.56674 -80.43658 15034 ft 320 kts 216°
2026-05-06 17:44 32.54738 -80.44937 14639 ft 318 kts 215°
2026-05-06 17:44 32.52811 -80.46209 14246 ft 316 kts 215°
2026-05-06 17:45 32.50898 -80.47471 13846 ft 314 kts 214°
2026-05-06 17:45 32.48992 -80.48725 13428 ft 312 kts 214°
2026-05-06 17:45 32.47102 -80.49969 13043 ft 309 kts 214°
2026-05-06 17:45 32.45226 -80.51202 12659 ft 307 kts 214°
2026-05-06 17:46 32.43367 -80.52423 12285 ft 305 kts 214°
2026-05-06 17:46 32.41524 -80.53633 11899 ft 302 kts 214°
2026-05-06 17:46 32.39690 -80.54837 11529 ft 300 kts 214°
2026-05-06 17:46 32.37931 -80.56123 11149 ft 294 kts 222°
2026-05-06 17:47 32.36479 -80.57783 10781 ft 288 kts 234°
2026-05-06 17:47 32.35306 -80.59685 10394 ft 285 kts 237°
2026-05-06 17:47 32.34158 -80.61577 10170 ft 279 kts 237°
2026-05-06 17:47 32.33033 -80.63421 9965 ft 273 kts 237°
2026-05-06 17:48 32.31931 -80.65226 9847 ft 271 kts 237°
2026-05-06 17:48 32.30828 -80.67033 9597 ft 271 kts 237°
2026-05-06 17:48 32.29746 -80.68808 9267 ft 269 kts 237°
2026-05-06 17:48 32.28660 -80.70584 8808 ft 265 kts 237°
2026-05-06 17:49 32.27581 -80.72349 8258 ft 264 kts 237°
2026-05-06 17:49 32.26506 -80.74108 7704 ft 264 kts 237°
2026-05-06 17:49 32.25429 -80.75868 7192 ft 264 kts 236°
2026-05-06 17:49 32.24357 -80.77616 6700 ft 262 kts 236°
2026-05-06 17:50 32.23290 -80.79352 6186 ft 260 kts 237°
2026-05-06 17:50 32.22230 -80.81079 5673 ft 259 kts 236°
2026-05-06 17:50 32.21182 -80.82786 5135 ft 255 kts 236°
2026-05-06 17:50 32.20143 -80.84481 4600 ft 255 kts 236°
2026-05-06 17:51 32.19106 -80.86175 4284 ft 253 kts 235°
2026-05-06 17:51 32.18079 -80.87850 3985 ft 251 kts 235°
2026-05-06 17:51 32.17056 -80.89515 3664 ft 250 kts 235°
2026-05-06 17:51 32.16038 -80.91171 3331 ft 249 kts 234°
2026-05-06 17:52 32.15021 -80.92824 2971 ft 249 kts 233°
2026-05-06 17:52 32.14025 -80.94446 2806 ft 239 kts 233°
2026-05-06 17:52 32.13089 -80.96016 2679 ft 229 kts 240°
2026-05-06 17:52 32.12642 -80.97742 2582 ft 216 kts 264°
2026-05-06 17:53 32.12654 -80.99449 2511 ft 199 kts 269°
2026-05-06 17:53 32.12673 -81.01037 2486 ft 190 kts 268°
2026-05-06 17:53 32.12689 -81.02584 2494 ft 187 kts 268°
2026-05-06 17:53 32.12705 -81.04119 2502 ft 188 kts 269°
2026-05-06 17:54 32.12721 -81.05665 2281 ft 188 kts 269°
2026-05-06 17:54 32.12737 -81.07188 2021 ft 183 kts 268°
2026-05-06 17:54 32.12752 -81.08625 1788 ft 168 kts 268°
2026-05-06 17:54 32.12767 -81.09927 1598 ft 151 kts 267°
2026-05-06 17:55 32.12779 -81.11141 1377 ft 147 kts 268°
2026-05-06 17:55 32.12791 -81.12333 1175 ft 144 kts 268°
2026-05-06 17:55 32.12806 -81.13493 972 ft 140 kts 269°
2026-05-06 17:55 32.12817 -81.14637 844 ft 141 kts 269°
2026-05-06 17:56 32.12816 -81.15799 681 ft 142 kts 268°
2026-05-06 17:56 32.12847 -81.16949 495 ft 140 kts 267°
2026-05-06 17:56 32.12846 -81.18075 288 ft 136 kts 266°
2026-05-06 17:56 32.12851 -81.19208 68 ft 137 kts 268°
2026-05-06 17:57 32.12860 -81.20221 45 ft 107 kts 268°
2026-05-06 17:57 32.12866 -81.20867 43 ft 38 kts 271°
2026-05-06 17:57 32.12878 -81.21056 39 ft 13 kts 306°
2026-05-06 17:57 32.12954 -81.21070 48 ft 9 kts
2026-05-06 17:58 32.13006 -81.21069 51 ft 7 kts
2026-05-06 17:58 32.13040 -81.21029 51 ft 8 kts 77°
2026-05-06 17:58 32.13039 -81.20930 52 ft 14 kts 90°
2026-05-06 17:58 32.13039 -81.20808 52 ft 16 kts 90°
2026-05-06 17:59 32.13039 -81.20661 52 ft 22 kts 91°
2026-05-06 17:59 32.13036 -81.20472 52 ft 21 kts 91°
2026-05-06 17:59 32.13054 -81.20336 50 ft 15 kts 35°
2026-05-06 17:59 32.13157 -81.20329 53 ft 15 kts
2026-05-06 18:00 32.13269 -81.20330 53 ft 18 kts 359°
2026-05-06 18:00 32.13434 -81.20333 54 ft 27 kts 360°
2026-05-06 18:00 32.13610 -81.20333 54 ft 18 kts
2026-05-06 18:00 32.13671 -81.20426 54 ft 17 kts 270°
2026-05-06 18:01 32.13671 -81.20572 54 ft 18 kts 271°
2026-05-06 18:01 32.13673 -81.20724 54 ft 19 kts 269°
2026-05-06 18:01 32.13672 -81.20829 54 ft 7 kts 267°
2026-05-06 18:01 32.13635 -81.20854 54 ft 7 kts 180°
2026-05-06 18:02 32.13608 -81.20854 54 ft 0 kts 181°
2026-05-06 18:02 32.13609 -81.20854 54 ft 0 kts 181°
2026-05-06 18:05 32.13608 -81.20854 54 ft 0 kts 181°